Location: Malvern Link
(52.1333°N, 2.3000°W)
Time: 22:42:13
(UTC+00:00)

DIWATA 2B (PO-101) - Pass Details

Date: 30 June 2022
Orbit: 583 x 599 km, 98.0° (Epoch: 16 August)

Event Time Altitude Azimuth Distance (km) Brightness Sun altitude
Rises 23:55:32 0° 102° (ESE) 2,845 ? -14.6°
Reaches altitude 10° 23:59:38 10° 62° (ENE) 1,950 ? -14.6°
Maximum altitude 00:00:23 10° 51° (NE) 1,923 ? -14.6°
Drops below altitude 10° 00:01:09 10° 41° (NE) 1,952 ? -14.6°
Sets 00:05:15 0° 2° (N) 2,861 ? -14.7°
